Location: La Chapelle
(48.3135°N, 1.3085°W)
Time: 23:29:35
(UTC+00:00)

SeaSat 1 - Pass Details

Date: 03 March 2021
Orbit: 744 x 747 km, 108.0° (Epoch: 14 April)

Event Time Altitude Azimuth Distance (km) Brightness Sun altitude
Rises 19:33:46 0° 28° (NNE) 3,202 5.5 -17.6°
Reaches altitude 10° 19:36:03 10° 27° (NNE) 2,274 4.8 -17.9°
Maximum altitude 19:41:00 82° 301° (WNW) 761 2.5 -18.7°
Drops below altitude 10° 19:45:56 10° 214° (SW) 2,261 5.2 -19.5°
Sets 19:48:11 0° 214° (SW) 3,181 6.0 -19.9°
